Liberia, Costa Rica

1:52 AM CST on August 26, 2016 (GMT -0600)
Daniel Oduber Quiros International

Weather History for MRLB - May, 2014

Change the Weather History Date:

Saturday, May 3, 2014

  Actual Average Record
Temperature  
Mean Temperature 84 °F -  
Max Temperature 97 °F 90 °F 98 °F (2015)
Min Temperature 70 °F 76 °F 68 °F (2006)
Cooling Degree Days 18    
Growing Degree Days 34 (Base 50)    
Moisture  
Dew Point 67 °F    
Average Humidity 53    
Maximum Humidity 83    
Minimum Humidity 30    
Precipitation  
Precipitation 0.00 in - - ()
Sea Level Pressure  
Sea Level Pressure 29.86 in    
Wind  
Wind Speed 4 mph ()    
Max Wind Speed 8 mph    
Max Gust Speed -    
Visibility 8.3 miles    
Events      
Averages and records for this station are not official NWS values.
T = Trace of Precipitation, MM = Missing Value Source: Averaged Metar Reports

Daily Weather History Graph

Daily Weather History Graph

Search for Another Location

Airport or City:

Trip Planner

Search our weather history database for the weather conditions in past years. The results will help you decide how hot, cold, wet, or windy it might be!

Date:

Astronomy

May. 03, 2014 Rise Set
Actual Time 5:23 AM CST 5:54 PM CST
Civil Twilight 5:01 AM CST 6:16 PM CST
Nautical Twilight 4:35 AM CST 6:42 PM CST
Astronomical Twilight 4:09 AM CST 7:08 PM CST
Moon 9:01 AM CST (5/3) 9:54 PM CST (5/3)
Length of Visible Light 13h 15m
Length of Day
12h 31m
Waxing Crescent, 20% of the Moon is Illuminated
May 3
Waxing Crescent
May 6
First Quarter
May 14
Full
May 21
Last Quarter
May 28
New

Hourly Weather History & Observations

Time (CST) Temp. Heat Index Dew Point Humidity Pressure Visibility Wind Dir Wind Speed Gust Speed Precip Events Conditions
6:00 AM 73 °F - 68 °F 80% 29.87 in 12 mi East 3.5 mph - -   Clear
6:00 AM 73.4 °F - 68.0 °F 83% 29.85 in - East 3.5 mph - N/A   Clear
7:00 AM 78.8 °F - 68.0 °F 69% 29.88 in - ESE 3.5 mph - N/A   Clear
8:00 AM 82.4 °F 86.3 °F 69.8 °F 66% 29.90 in - South 3.5 mph - N/A   Clear
9:00 AM 85 °F - 67 °F 46% 29.92 in 12 mi SW 5.8 mph - -   Clear
9:00 AM 86.0 °F 89.4 °F 68.0 °F 55% 29.92 in - SW 5.8 mph - N/A   Clear
10:00 AM 87.8 °F 91.4 °F 68.0 °F 52% 29.90 in - WSW 4.6 mph - N/A   Clear
11:00 AM 89.6 °F 93.4 °F 68.0 °F 49% 29.90 in 6.2 mi West 4.6 mph - N/A   Mostly Cloudy
12:00 PM 92 °F - 66 °F 33% 29.88 in 12 mi WNW 8.1 mph - -   Overcast
12:00 PM 91.4 °F 94.0 °F 66.2 °F 43% 29.88 in 6.2 mi WNW 8.1 mph - N/A   Mostly Cloudy
1:00 PM 93.2 °F 96.2 °F 66.2 °F 41% 29.85 in 6.2 mi WNW 6.9 mph - N/A   Mostly Cloudy
2:00 PM 93.2 °F 96.2 °F 66.2 °F 41% 29.81 in 6.2 mi NW 3.5 mph - N/A   Mostly Cloudy
3:00 PM 95.0 °F 94.4 °F 59.0 °F 30% 29.79 in 6.2 mi East 6.9 mph - N/A   Mostly Cloudy
4:00 PM 95.0 °F 95.2 °F 60.8 °F 32% 29.79 in 6.2 mi East 8.1 mph - N/A   Mostly Cloudy
5:00 PM 93.2 °F 94.9 °F 64.4 °F 38% 29.80 in 6.2 mi East 6.9 mph - N/A   Scattered Clouds
6:00 PM 87 °F - 71 °F 49% 29.86 in 12 mi West 5.8 mph - -   Clear
6:00 PM 86.0 °F 90.4 °F 69.8 °F 58% 29.83 in - West 5.8 mph - N/A   Clear
7:00 PM 84.2 °F 90.9 °F 73.4 °F 70% 29.87 in - SW 4.6 mph - N/A   Clear
8:00 PM 82.4 °F 88.2 °F 73.4 °F 74% 29.90 in - SSE 8.1 mph - N/A   Clear